Weather Roundup
Issued by NWS

Home | Current Version | Previous Version | Text Only | Print | Product List | Glossary On
Versions: 1 2 3 4 5 6 7 8 9 10 11 12 13 14 15 16 17 18 19 20 21 22 23 24 25 26 27 28 29 30 31 32 33 34 35 36 37 38 39 40 41 42 43 44 45 46 47 48 49 50
000
NZUS93 KARX 240210
HRRWXR

CURRENT HOURLY OBSERVATIONS ACROSS
MUCH OF THE UPPER MISSISSIPPI VALLEY
NATIONAL WEATHER SERVICE LA CROSSE WI
800 PM CST THU NOV 23 2017


...SOUTHEAST MINNESOTA...


CITY           SKY/WX    TMP DP  RH WIND       PRES   REMARKS
ROCHESTER      CLEAR     36  27  69 S14       29.76F WCI  27
ROCHESTER/MAYO FAIR      39  27  60 S10       29.76F WCI  32
WINONA         CLEAR     34  28  80 SE3       29.79F
AUSTIN         CLEAR     37  27  65 S8        29.77F WCI  31
ALBERT LEA     CLEAR     41  28  60 S8        29.76F
DODGE CENTER   CLEAR     39  28  65 S14       29.75F WCI  31
PRESTON        CLEAR     36  26  65 S13       29.79F WCI  28
OWATONNA       PTCLDY    41  30  65 S16       29.73F
FARIBAULT      CLEAR     37  28  70 S9        29.73F WCI  31
$$

...ELSEWHERE IN MINNESOTA...


CITY           SKY/WX    TMP DP  RH WIND       PRES   REMARKS
MINNEAPOLIS    PTCLDY    38  28  67 SE7       29.69F WCI  33
INTNL FALLS    CLOUDY    32  24  72 VRB7      29.46F WCI  26
DULUTH         CLOUDY    34  24  67 SW13      29.59F WCI  25
RED WING       PTCLDY    41  23  48 S5        29.74F
REDWOOD FALLS  CLEAR     42  30  62 S12       29.64F
MANKATO        CLEAR     40  29  64 S9        29.71F WCI  34
WORTHINGTON    CLOUDY    46  34  62 S14       29.70F
FAIRMONT       CLOUDY    41  31  67 S13       29.73F
$$

...SOUTHWEST WISCONSIN...


CITY           SKY/WX    TMP DP  RH WIND       PRES   REMARKS
LA CROSSE      CLEAR     39  25  57 S12       29.81F WCI  32
PRAIRIE DU CHI CLEAR     32  23  68 CALM      29.86F
BOSCOBEL       CLEAR     29  23  78 CALM      29.87F
LONE ROCK      NOT AVBL
PLATTEVILLE    CLEAR     36  27  69 S6        29.88S WCI  31
FORT MC COY    CLEAR     26  21  82 CALM      29.82F
CAMP DOUGLAS   CLEAR     25  20  82 S5        29.81F WCI  19
MAUSTON-NEW LI CLEAR     27  23  82 CALM      29.82F
VIROQUA        FAIR      37  26  66 S8        29.82F WCI  30
WIS DELLS      CLEAR     33  22  64 CALM      29.85F
$$

...ELSEWHERE IN WISCONSIN...


CITY           SKY/WX    TMP DP  RH WIND       PRES   REMARKS
MILWAUKEE      CLEAR     36  24  62 S5        29.89S WCI  32
MADISON        CLEAR     37  25  61 S3        29.87F
GREEN BAY      CLOUDY    33  25  72 S6        29.86R WCI  28
EAU CLAIRE     CLOUDY    37  22  54 S10       29.74F WCI  30
BLACK RVR FLS  FAIR      28  20  74 CALM      29.80F
MEDFORD        MOCLDY    34  23  64 S9        29.74F WCI  26
WAUSAU         CLOUDY    33  23  66 S7        29.75F WCI  27
WIS RAPIDS     CLEAR     30  21  69 S6        29.81F WCI  24
MARSHFIELD     CLOUDY    34  22  61 S8        29.76F WCI  27
RICE LAKE      CLOUDY    37  24  59 SE8       29.72F WCI  31
$$

...NORTHEAST IOWA...


CITY           SKY/WX    TMP DP  RH WIND       PRES   REMARKS
WATERLOO       CLEAR     36  27  69 S6        29.85F WCI  31
DUBUQUE        CLEAR     32  25  75 SW6       29.88S WCI  26
DECORAH        CLEAR     37  27  65 S7        29.82F WCI  32
MASON CITY     CLEAR     35  27  72 S9        29.80F WCI  28
CHARLES CITY   CLEAR     37  28  70 S12       29.82F WCI  30
OELWEIN        CLEAR     34  28  80 S8        29.86F WCI  27
$$

...ELSEWHERE IN IOWA...


CITY           SKY/WX    TMP DP  RH WIND       PRES   REMARKS
DES MOINES     PTCLDY    46  32  58 S10       29.85F
IOWA CITY      CLEAR     35  26  69 CALM      29.91F
FORT DODGE     CLOUDY    48  32  53 S9        29.79F
MARSHALLTOWN   CLEAR     39  30  70 S7        29.85F WCI  34
CEDAR RAPIDS   CLEAR     36  27  69 S3        29.88S
$$

...NORTHERN ILLINOIS...


CITY           SKY/WX    TMP DP  RH WIND       PRES   REMARKS
CHICAGO-OHARE  CLEAR     38  25  59 SW6       29.92S WCI  33
CHICAGO-MIDWAY CLEAR     39  27  62 S5        29.93S
MOLINE         CLEAR     34  25  69 CALM      29.91F
ROCKFORD       CLEAR     29  25  85 CALM      29.93R
PEORIA         CLEAR     36  26  67 CALM      29.95S
$$

NOTE: "FAIR" INDICATES FEW OR NO CLOUDS BELOW 12,000 FEET WITH NO
SIGNIFICANT WEATHER AND/OR OBSTRUCTIONS TO VISIBILITY. WIND
SPEEDS ARE IN MILES-PER-HOUR.




USA.gov is the U.S. government's official web portal to all federal, state and local government web resources and services.